Regional Weather Roundup
Issued by NWS Grand Forks, ND

Home | Current Version | Previous Version | Graphics & Text | Print | Product List | Glossary On
Versions: 1 2 3 4 5 6 7 8 9 10 11 12 13 14 15 16 17 18 19 20 21 22 23 24 25 26 27 28 29 30 31 32 33 34 35 36 37 38 39 40 41 42 43 44 45 46 47 48 49 50
000
ASUS43 KFGF 262310
RWRFGF
PRAIRIE TO PINES  WEATHER ROUNDUP
NATIONAL WEATHER SERVICE EASTERN NORTH DAKOTA/GRAND FORKS ND
500 PM CST WED NOV 26 2014

 **SATELLITE DATA USED TO AUGMENT SKY COVER AT AUTOMATED STATIONS**
 *****  WEATHER ACROSS EASTERN NORTH DAKOTA  *****

CITY           SKY/WX    TMP DP  RH WIND       PRES   REMARKS
GRAND FORKS    CLEAR     -4  -9  79 N6        30.51R WCI -16
GRAND FRKS AFB CLEAR     -4 -10  76 NE6       30.51R WCI -16
GRAND FRKS NWS   N/A     -2 N/A N/A N6          N/A  WCI -14
DEVILS LAKE    CLEAR     -2 -17  50 N6        30.43S WCI -14
FARGO          CLEAR      1  -6  72 N9        30.48R WCI -14
WAHPETON ARPT  PTCLDY     3  -6  66 NW9       30.46R WCI -11
$$

 ***** WEATHER ACROSS CENTRAL AND WESTERN NORTH DAKOTA  *****

CITY           SKY/WX    TMP DP  RH WIND       PRES   REMARKS
BISMARCK       PTCLDY     5  -1  76 NE6       30.44R WCI  -6
MINOT          PTCLDY    -6 -10  83 NW5       30.43R WCI -17
JAMESTOWN      CLEAR     -6 -11  79 NW8       30.43R WCI -21
MINOT AFB      MOCLDY   -11 -15  81 NW2       30.44R
GARRISON         N/A      0  -6  76 NE3       30.41R
WILLISTON      CLOUDY     9   2  73 N6        30.39R WCI  -1
DICKINSON      CLOUDY    17  11  77 NE10      30.30R WCI   5
HETTINGER      PTCLDY    17  12  80 CALM      30.31R
$$

 *****  OTHER AIRPORT OBSERVATIONS IN OUR AREA  *****

CITY           SKY/WX    TMP DP  RH WIND       PRES   REMARKS
WALHALLA         N/A     -2  -9  71 N8        30.51S WCI -17
GRAFTON AIRPOR FAIR      -2  -8  78 N7        30.52S WCI -16
VALLEY CITY AR FAIR       0  -9  65 N6        30.45R WCI -12
CANDO          FAIR      -2  -9  71 NW3       30.46S
CAVALIER APRT  FAIR       0  -8  71 N7        30.52R WCI -13
GWINNER        CLEAR      3  -6  66 N7        30.46R WCI  -9
SHEYENNE NWR     N/A      1 -10  61 N7        29.95S WCI -12
ROLLA          FAIR      -4 -11  71 N8        30.42R WCI -19
 ***** THE ABOVE OBSERVATIONS ARE NON NWS ARE NOT QUALITY
       CONTROLLED AND MAY MIS-REPORT RAIN FOR SNOW...
$$

  *****  WEATHER ACROSS NORTHERN MINNESOTA  *****

CITY           SKY/WX    TMP DP  RH WIND       PRES   REMARKS
FLAG ISLAND    CLEAR     -2  -9  71 NW9       30.43R WCI -18
WARROAD        CLEAR     -2  -9  71 NW7       30.44R WCI -16
ROSEAU         CLEAR     -2  -9  71 NW9       30.45R WCI -18
HALLOCK        CLEAR     -4 -11  71 N6        30.51R WCI -16
THF RVR FALLS  CLEAR      0  -8  71 NW9       30.44R WCI -16
BAUDETTE       CLEAR     -3 -10  72 N6        30.40R WCI -15
WASKISH        CLEAR      0  -8  71 CALM      30.40R
CROOKSTON      CLEAR      0  -8  71 N12       30.50R WCI -18
STEPHEN NDAWN    N/A     -2  -9  71 VRB8        N/A  WCI -17
GREENBUSH NDAW   N/A     -4  -9  77 NW9         N/A  WCI -20
$$
  *****  WEATHER ACROSS CENTRAL AND WEST MINNESOTA  *****

CITY           SKY/WX    TMP DP  RH WIND       PRES   REMARKS
FOSSTON        CLEAR     -6 -11  77 N6        30.42R WCI -18
BEMIDJI        CLEAR      0  -8  69 W9        30.37R WCI -15
PARK RAPIDS    CLEAR      4  -9  55 NW9       30.33R WCI -10
ELBOW LAKE     CLOUDY     6   0  78 NW14G21   30.38R WCI -11
WADENA         CLEAR      9  -2  61 NW14      30.33R WCI  -8
DETROIT LAKES  CLEAR      3  -4  72 N12G18    30.40R WCI -13
MOORHEAD       CLEAR      1  -2  85 N12       30.48R WCI -15
FERGUS FALLS   PTCLDY     1  -6  71 N14       30.45R WCI -17
MORRIS MN      CLOUDY     7   1  78 NW21G26   30.37R WCI -13
STAPLES        MOCLDY    10  -2  56 N10       30.32R WCI  -3
$$
  *****  WEATHER ELSEWHERE ACROSS MINNESOTA  *****

CITY           SKY/WX    TMP DP  RH WIND       PRES   REMARKS
DULUTH         PTCLDY    14   4  64 NW12      30.24R WCI   0
INTRNTL FALLS  CLEAR     -1  -8  72 NW6       30.37R WCI -13
ELY            CLEAR      7  -2  66 NW5       30.27R WCI  -2
CLOQUET        MOCLDY    14   3  62 NW8       30.26R WCI   3
WHEATON        CLOUDY     3  -2  78 NW12      30.46R WCI -13
BRAINERD       MOCLDY    11  -3  53 N13       30.31R WCI  -4
HIBBING        CLEAR      9  -5  53 N9        30.28R WCI  -4
ALEXANDRIA     CLOUDY    11   1  64 NW12      30.33R WCI  -3
SAINT CLOUD    CLOUDY    21   9  59 N9        30.28R WCI  11
MINNEAPOLIS    MOCLDY    22  15  75 NW6       30.26R WCI  14
$$

  *****  WEATHER ACROSS SOUTH DAKOTA  *****

CITY           SKY/WX    TMP DP  RH WIND       PRES   REMARKS
SIOUX FALLS    PTCLDY    14   7  73 N9        30.33S WCI   2
BROOKINGS      NOT AVBL
WATERTOWN      CLOUDY     7  -1  70 N12       30.36R WCI  -8
HURON          PTCLDY     9   0  67 N8        30.43R WCI  -3
SISSETON         N/A      5  -3  69 N14       30.43R WCI -12
ABERDEEN       CLOUDY     8  -1  66 N12       30.45R WCI  -7
MITCHELL       CLOUDY    14   6  70 N16       30.42R WCI  -2
PIERRE         CLOUDY    18  10  71 E10       30.37R WCI   6
MOBRIDGE       CLOUDY    14   7  73 NE6       30.37R WCI   5
RAPID CITY     CLOUDY    31  24  75 CALM      30.26R
$$

  *****  SOME WEATHER IN NEARBY STATES *****

CITY           SKY/WX    TMP DP  RH WIND       PRES   REMARKS
GLASGOW MT     MOCLDY    21  15  78 E15       30.28S WCI   8
GREAT FALLS MT CLOUDY    29  28  96 E12       30.08R WCI  19
CHEYENNE WY    CLOUDY    33  24  69 S12       30.14S WCI  24
SCOTTSBLUFF NE LGT SNOW  29  27  92 S5        30.24S VSB 1   WCI  24
OMAHA NE       CLOUDY    28  21  75 N17G25    30.29R WCI  16
DES MOINES IA  FLURRIES  32  27  81 N14       30.16R WCI  22
DAVENPORT IA   CLOUDY    27  22  81 NE12      30.12R WCI  17
CHICAGO IL     CLOUDY    28  21  75 E5        30.11S WCI  23
EAU CLAIRE WI  CLOUDY    23  19  85 NW5       30.22R WCI  17
LA CROSSE WI   LGT SNOW  27  23  85 NW8       30.21R FOG     WCI  19
$$

  *****  SOME NATIONAL WEATHER *****

CITY           SKY/WX    TMP DP  RH WIND       PRES   REMARKS
LA GUARDIA NY  LGT RAIN  37  34  87 N14G23    29.79S FOG
RALEIGH NC     MOCLDY    42  38  85 CALM      30.02R
ATLANTA GA     PTCLDY    50  22  33 W5        30.07S
NEW ORLEANS LA PTCLDY    64  38  38 SW14      30.19R
OKLAHOMA CITY  MOCLDY    52  22  30 N20G28    30.25R
ALBUQUERQUE NM PTCLDY    59  22  24 VRB5      30.31F
SALT LAKE CITY PTCLDY    59  27  29 SE3       30.35S
LOS ANGELES CA SUNNY     74  27  17 W9        30.14F
BOISE ID       MOCLDY    58  41  53 SE8       30.23F
SEATTLE WA     CLOUDY    57  52  83 SW5       30.05S
$$

*** WEATHER ACROSS MANITOBA...SASKATCHEWAN AND ONTARIO ***
                ***ONTARIO***

CITY           SKY/WX    TMP DP  RH WIND       PRES   REMARKS
GERALDTON      MOCLDY    -4 -11  71 N7        30.28R WCI -18
THUNDER BAY    MOCLDY    10   3  72 N5        30.31R WCI   2
SIOUX LOOKOUT  PTCLDY    -8 -13  77 NW2       30.35R
TORONTO        FLURRIES  34  25  69 NE6       30.10S
BIG TROUT LK   FLURRIES -13 -20  70 W7        30.36R WCI -29
PICKLE LAKE    CRYSTALS -11 -18  70 W3        30.33R
DRYDEN         NOT AVBL
KENORA         PTCLDY    -4 -11  71 NW6       30.40R WCI -16
$$
                *** MANITOBA***

CITY           SKY/WX    TMP DP  RH WIND       PRES   REMARKS
BRANDON        PTCLDY    -6 -13  71 W8        30.47R WCI -21
DAUPHIN        CLEAR     -6 -13  71 SW3       30.51S
ISLAND LAKE    CLEAR     -9 -18  64 W10       30.44R WCI -28
PILOT MOUND      N/A     -6 -11  77 NW5         N/A  WCI -17
THE PAS        PTCLDY    -9 -15  77 SW2       30.48F
THOMPSON       PTCLDY   -15 -20  76 SW5       30.41S WCI -27
WINNIPEG       CLEAR     -8 -15  71 NW7       30.53S WCI -22
LYNN LAKE      CLEAR    -11 -17  77 SW7       30.31F WCI -26
CHURCHILL      PTCLDY    -8 -13  77 SW10      30.24F WCI -26
GILLAM         CLEAR    -13 -20  70 W9        30.38R WCI -31
$$
                ***SASKATCHEWAN***

CITY           SKY/WX    TMP DP  RH WIND       PRES   REMARKS
ESTEVAN        PTCLDY    -2  -8  78 E3        30.41R
KINDERSLEY     MOCLDY    14  10  85 SE6       30.23S WCI   5
LLOYDMINSTER   CLOUDY     9   5  85 SE9       30.20F WCI  -5
PRINCE ALBERT  CLOUDY    -4  -9  77 E5        30.41F WCI -15
REGINA         PTCLDY    -4  -9  77 SE7       30.40S WCI -18
YORKTON        CLEAR     -8 -13  77 SW6       30.44R WCI -21
N. BATTLEFORD  FLURRIES   7   3  85 SE13G18   30.31F WCI  -9
LA RONGE       PTCLDY    -4  -9  77 S6        30.36F WCI -16
SASKATOON      MOCLDY     3  -2  78 SE10      30.38F WCI -12
SWIFT CURRENT  MOCLDY    18  16  93 S12       30.21S WCI   5
$$
NOTE: THESE ARE AUTOMATED STATIONS WITH LIMITED QUALITY CONTROL
      "FAIR" INDICATES FEW OR NO CLOUDS BELOW 12,000 FEET WITH NO
      SIGNIFICANT WEATHER AND/OR OBSTRUCTIONS TO VISIBILITY.
      SKY/WX - SKY CONDITION AND SIGNIFICANT WEATHER.
      TMP - AIR TEMPERATURE.    DP   - DEWPOINT TEMPERATURE.
      RH  - RELATIVE HUMIDITY.  PRES - PRESSURE.
      HX  - HEAT INDEX.         WCI  - WIND CHILL INDEX.
$


USA.gov is the U.S. government's official web portal to all federal, state and local government web resources and services.